Regional Weather Roundup
Issued by NWS

Home | Current Version | Previous Version | Graphics & Text | Print | Product List | Glossary On
Versions: 1 2 3 4 5 6 7 8 9 10 11 12 13 14 15 16 17 18 19 20 21 22 23 24 25 26 27 28 29 30 31 32 33 34 35 36 37 38 39 40 41 42 43 44 45 46 47 48 49 50
000
ASUS43 KTOP 291559
RWRKS

WEATHER ROUNDUP FOR KANSAS
NATIONAL WEATHER SERVICE GOODLAND KS
1100 AM CDT FRI MAY 29 2015

NOTE:  "FAIR" INDICATES FEW OR NO CLOUDS BELOW 12,000 FEET WITH NO
SIGNIFICANT WEATHER AND/OR OBSTRUCTIONS TO VISIBILITY.

KSZ001>006-013>018-027>032-041>047-291700-
NORTHWEST KANSAS

CITY           SKY/WX    TMP DP  RH WIND       PRES   REMARKS
GOODLAND       MOSUNNY   66  53  63 N17       30.10R
HAYS           PTSUNNY   70  54  56 N7        30.01R
HILL CITY      MOSUNNY   71  57  61 NW10      30.01S
RUSSELL        PTSUNNY   68  57  68 VRB3      29.98F
$$

KSZ061>065-074>080-084>089-291700-
SOUTHWEST KANSAS

CITY           SKY/WX    TMP DP  RH WIND       PRES   REMARKS
DODGE CITY     MOSUNNY   70  55  59 N9        30.02S
ELKHART          N/A     69  52  54 N13         N/A
GARDEN CITY    SUNNY     67  57  70 N13       30.04S
GREAT BEND     PTSUNNY   70  57  64 N9        29.99R
LIBERAL        MOSUNNY   68  57  68 N7        30.06S
$$

KSZ066>073-081>083-090>101-291700-
SOUTHEAST KANSAS

CITY           SKY/WX    TMP DP  RH WIND       PRES   REMARKS
CHANUTE        LGT RAIN  68  66  93 SE12      30.02R
COFFEYVILLE    LGT RAIN  71  69  93 SE6       30.00F
HUTCHINSON     CLOUDY    68  63  84 VRB3      29.98S
MEDICINE LODGE   N/A     70  63  78 CALM      29.97S
NEWTON         CLOUDY    66  63  88 S10       29.99F
PARSONS        LGT RAIN  70  69  97 VRB3      30.02F
WICHITA INTL   CLOUDY    71  65  81 S6        29.97R
WICHITA JABRA  CLOUDY    69  66  90 S7        29.98R
WICHITA MCCONL CLOUDY    70  66  86 S8        29.98R
WINFIELD       CLOUDY    71  65  81 S8        29.99R
$$

KSZ007>012-019>026-033>040-048>060-102>105-291700-
NORTHEAST KANSAS

CITY           SKY/WX    TMP DP  RH WIND       PRES   REMARKS
CONCORDIA      CLOUDY    68  61  78 W8        29.97R
EMPORIA        RAIN      65  64  97 SE12      30.00S
LAWRENCE       LGT RAIN  68  64  87 S7        29.99R
MANHATTAN      CLOUDY    69  66  90 SW5       29.97R
OLATHE IND     LGT RAIN  67  64  90 S13       30.00S
OLATHE EXE     LGT RAIN  68  64  87 S7        29.99F
SALINA         CLOUDY    70  61  73 SW3       29.98R
TOPEKA BILLARD LGT RAIN  69  65  86 S7        29.99R
TOPEKA FORBES  LGT RAIN  68  65  90 S8        29.99R
$$


USA.gov is the U.S. government's official web portal to all federal, state and local government web resources and services.